| time (UTC) | temp C | wind direction | speed KPH | gust KPH | rain 1hr cm | rain 24hr cm | rain mn cm | humidity % | barometer mb |
| 20260504235007 | 16 | 40 | 19.3 | 32.2 | 0.00 | 0.00 | 0.00 | 34 | 1006.9 |
| 20260504234505 | 16 | 55 | 25.7 | 30.6 | 0.00 | 0.00 | 0.00 | 33 | 1007.0 |
| 20260504234001 | 16 | 43 | 22.5 | 33.8 | 0.00 | 0.00 | 0.00 | 33 | 1006.9 |
| 20260504233456 | 16 | 47 | 24.1 | 33.8 | 0.00 | 0.00 | 0.00 | 33 | 1006.7 |
| 20260504232954 | 16 | 50 | 16.1 | 40.2 | 0.00 | 0.00 | 0.00 | 33 | 1006.6 |
| 20260504232451 | 16 | 61 | 29.0 | 40.2 | 0.00 | 0.00 | 0.00 | 33 | 1006.7 |
| 20260504231948 | 16 | 58 | 20.9 | 29.0 | 0.00 | 0.00 | 0.00 | 32 | 1007.0 |
| 20260504231444 | 17 | 39 | 19.3 | 30.6 | 0.00 | 0.00 | 0.00 | 32 | 1006.7 |
| 20260504230941 | 17 | 23 | 12.9 | 24.1 | 0.00 | 0.00 | 0.00 | 32 | 1006.7 |
| 20260504230437 | 17 | 41 | 17.7 | 25.7 | 0.00 | 0.00 | 0.00 | 31 | 1006.9 |
| 20260504225937 | 17 | 56 | 16.1 | 27.4 | 0.00 | 0.00 | 0.00 | 31 | 1006.6 |
| 20260504225433 | 17 | 38 | 9.7 | 29.0 | 0.00 | 0.00 | 0.00 | 31 | 1006.5 |
| 20260504224930 | 17 | 49 | 22.5 | 35.4 | 0.00 | 0.00 | 0.00 | 31 | 1006.4 |
| 20260504224427 | 17 | 54 | 32.2 | 33.8 | 0.00 | 0.00 | 0.00 | 31 | 1006.5 |
| 20260504223924 | 17 | 46 | 16.1 | 22.5 | 0.00 | 0.00 | 0.00 | 31 | 1006.4 |
| 20260504223419 | 17 | 38 | 14.5 | 27.4 | 0.00 | 0.00 | 0.00 | 31 | 1006.2 |
| 20260504222915 | 17 | 62 | 22.5 | 30.6 | 0.00 | 0.00 | 0.00 | 31 | 1006.1 |
| 20260504222413 | 17 | 54 | 25.7 | 30.6 | 0.00 | 0.00 | 0.00 | 31 | 1005.9 |
| 20260504221911 | 17 | 34 | 17.7 | 35.4 | 0.00 | 0.00 | 0.00 | 30 | 1006.1 |
| 20260504221408 | 17 | 25 | 24.1 | 32.2 | 0.00 | 0.00 | 0.00 | 29 | 1005.9 |
| 20260504220905 | 17 | 54 | 24.1 | 35.4 | 0.00 | 0.00 | 0.00 | 30 | 1006.4 |
| 20260504220401 | 17 | 39 | 17.7 | 30.6 | 0.00 | 0.00 | 0.00 | 30 | 1006.4 |
| 20260504215858 | 17 | 29 | 25.7 | 33.8 | 0.00 | 0.00 | 0.00 | 30 | 1006.4 |
| 20260504215355 | 17 | 14 | 24.1 | 29.0 | 0.00 | 0.00 | 0.00 | 30 | 1006.1 |
| 20260504214851 | 17 | 31 | 17.7 | 29.0 | 0.00 | 0.00 | 0.00 | 30 | 1006.2 |
| 20260504214348 | 18 | 48 | 20.9 | 32.2 | 0.00 | 0.00 | 0.00 | 29 | 1006.1 |
| 20260504213845 | 18 | 51 | 25.7 | 29.0 | 0.00 | 0.00 | 0.00 | 28 | 1005.8 |
| 20260504213340 | 18 | 19 | 19.3 | 35.4 | 0.00 | 0.00 | 0.00 | 29 | 1006.1 |
| 20260504212838 | 18 | 39 | 22.5 | 37.0 | 0.00 | 0.00 | 0.00 | 29 | 1006.1 |
| 20260504212334 | 18 | 11 | 9.7 | 30.6 | 0.00 | 0.00 | 0.00 | 28 | 1005.8 |
| 20260504211832 | 18 | 26 | 24.1 | 30.6 | 0.00 | 0.00 | 0.00 | 27 | 1005.8 |
| 20260504211328 | 18 | 58 | 33.8 | 46.7 | 0.00 | 0.00 | 0.00 | 28 | 1005.9 |
| 20260504210826 | 19 | 23 | 22.5 | 30.6 | 0.00 | 0.00 | 0.00 | 28 | 1005.7 |
| 20260504210323 | 18 | 32 | 25.7 | 40.2 | 0.00 | 0.00 | 0.00 | 27 | 1005.7 |
| 20260504205820 | 18 | 31 | 19.3 | 38.6 | 0.00 | 0.00 | 0.00 | 27 | 1005.7 |
| 20260504205318 | 19 | 61 | 32.2 | 38.6 | 0.00 | 0.00 | 0.00 | 26 | 1005.8 |
| 20260504204815 | 19 | 10 | 20.9 | 33.8 | 0.00 | 0.00 | 0.00 | 27 | 1005.6 |
| 20260504204314 | 20 | 25 | 24.1 | 35.4 | 0.00 | 0.00 | 0.00 | 26 | 1005.7 |
| 20260504203813 | 19 | 4 | 27.4 | 45.1 | 0.00 | 0.00 | 0.00 | 27 | 1005.5 |
| 20260504203309 | 18 | 22 | 19.3 | 38.6 | 0.00 | 0.00 | 0.00 | 27 | 1005.7 |
| 20260504202804 | 19 | 33 | 19.3 | 45.1 | 0.00 | 0.00 | 0.00 | 27 | 1005.5 |
| 20260504202304 | 20 | 21 | 19.3 | 43.5 | 0.00 | 0.00 | 0.00 | 26 | 1005.4 |
| 20260504201759 | 20 | 47 | 33.8 | 38.6 | 0.00 | 0.00 | 0.00 | 25 | 1005.4 |
| 20260504201256 | 21 | 26 | 33.8 | 38.6 | 0.00 | 0.00 | 0.00 | 24 | 1005.3 |
| 20260504200754 | 21 | 18 | 24.1 | 38.6 | 0.00 | 0.00 | 0.00 | 25 | 1005.3 |
| 20260504200249 | 20 | 36 | 19.3 | 37.0 | 0.00 | 0.00 | 0.00 | 26 | 1005.4 |
| 20260504195746 | 21 | 41 | 29.0 | 40.2 | 0.00 | 0.00 | 0.00 | 26 | 1005.4 |
| 20260504195242 | 20 | 46 | 27.4 | 30.6 | 0.00 | 0.00 | 0.00 | 25 | 1005.5 |
| 20260504194739 | 21 | 43 | 24.1 | 41.8 | 0.00 | 0.00 | 0.00 | 25 | 1005.3 |
| 20260504194235 | 20 | 20 | 19.3 | 40.2 | 0.00 | 0.00 | 0.00 | 26 | 1005.5 |
| 20260504193732 | 20 | 27 | 33.8 | 37.0 | 0.00 | 0.00 | 0.00 | 26 | 1005.4 |
| 20260504193229 | 20 | 31 | 27.4 | 35.4 | 0.00 | 0.00 | 0.00 | 26 | 1005.5 |
| 20260504192728 | 20 | 27 | 24.1 | 32.2 | 0.00 | 0.00 | 0.00 | 27 | 1005.5 |
| 20260504192225 | 19 | 358 | 33.8 | 43.5 | 0.00 | 0.00 | 0.00 | 27 | 1005.6 |
| 20260504191724 | 21 | 9 | 38.6 | 38.6 | 0.00 | 0.00 | 0.00 | 26 | 1005.7 |
| 20260504191220 | 20 | 357 | 27.4 | 48.3 | 0.00 | 0.00 | 0.00 | 27 | 1005.6 |
| 20260504190715 | 20 | 4 | 33.8 | 41.8 | 0.00 | 0.00 | 0.00 | 27 | 1005.7 |
| 20260504190212 | 21 | 16 | 38.6 | 40.2 | 0.00 | 0.00 | 0.00 | 27 | 1005.5 |
| 20260504185709 | 20 | 0 | 40.2 | 46.7 | 0.00 | 0.00 | 0.00 | 28 | 1005.6 |
| 20260504185205 | 21 | 31 | 16.1 | 33.8 | 0.00 | 0.00 | 0.00 | 27 | 1005.6 |
| 20260504184702 | 20 | 29 | 35.4 | 37.0 | 0.00 | 0.00 | 0.00 | 29 | 1005.5 |
| 20260504184157 | 21 | 29 | 27.4 | 40.2 | 0.00 | 0.00 | 0.00 | 28 | 1005.6 |
| 20260504183654 | 21 | 4 | 20.9 | 40.2 | 0.00 | 0.00 | 0.00 | 29 | 1005.1 |
| 20260504183151 | 20 | 13 | 20.9 | 45.1 | 0.00 | 0.00 | 0.00 | 29 | 1005.4 |
| 20260504182649 | 21 | 18 | 27.4 | 45.1 | 0.00 | 0.00 | 0.00 | 27 | 1005.1 |
| 20260504182146 | 21 | 13 | 16.1 | 24.1 | 0.00 | 0.00 | 0.00 | 25 | 1005.0 |
| 20260504181644 | 20 | 39 | 27.4 | 32.2 | 0.00 | 0.00 | 0.00 | 26 | 1005.3 |
| 20260504181141 | 21 | 56 | 20.9 | 32.2 | 0.00 | 0.00 | 0.00 | 26 | 1005.1 |
| 20260504180640 | 20 | 57 | 24.1 | 35.4 | 0.00 | 0.00 | 0.00 | 28 | 1005.3 |
| 20260504180138 | 20 | 18 | 17.7 | 33.8 | 0.00 | 0.00 | 0.00 | 27 | 1005.0 |
| 20260504175635 | 21 | 23 | 24.1 | 33.8 | 0.00 | 0.00 | 0.00 | 26 | 1004.8 |
| 20260504175132 | 20 | 16 | 25.7 | 35.4 | 0.00 | 0.00 | 0.00 | 26 | 1004.9 |
| 20260504174630 | 20 | 37 | 27.4 | 32.2 | 0.00 | 0.00 | 0.00 | 25 | 1004.8 |
| 20260504174126 | 20 | 10 | 33.8 | 43.5 | 0.00 | 0.00 | 0.00 | 25 | 1005.0 |
| 20260504173624 | 22 | 345 | 24.1 | 25.7 | 0.00 | 0.00 | 0.00 | 17 | 1004.7 |
| 20260504173121 | 23 | 11 | 8.0 | 19.3 | 0.00 | 0.00 | 0.00 | 17 | 1004.7 |
| 20260504172617 | 23 | 306 | 6.4 | 6.4 | 0.00 | 0.00 | 0.00 | 17 | 1004.9 |
| 20260504172114 | 23 | 217 | 1.6 | 8.0 | 0.00 | 0.00 | 0.00 | 18 | 1004.9 |
| 20260504171610 | 23 | 142 | 6.4 | 12.9 | 0.00 | 0.00 | 0.00 | 18 | 1004.8 |
| 20260504171108 | 22 | 71 | 3.2 | 4.8 | 0.00 | 0.00 | 0.00 | 19 | 1004.8 |
| 20260504170603 | 21 | 148 | 9.7 | 14.5 | 0.00 | 0.00 | 0.00 | 20 | 1004.6 |
| 20260504150947 | 20 | 341 | 9.7 | 9.7 | 0.00 | 0.00 | 0.00 | 24 | 1005.5 |
| 20260504150444 | 19 | 216 | 4.8 | 6.4 | 0.00 | 0.00 | 0.00 | 25 | 1005.6 |
| 20260504140910 | 14 | 281 | 6.4 | 11.3 | 0.00 | 0.00 | 0.00 | 35 | 1005.8 |
| 20260504140406 | 13 | 255 | 8.0 | 11.3 | 0.00 | 0.00 | 0.00 | 36 | 1006.1 |
| 20260504130719 | 9 | 307 | 12.9 | 14.5 | 0.00 | 0.00 | 0.00 | 45 | 1006.4 |
| 20260504130215 | 8 | 303 | 8.0 | 12.9 | 0.00 | 0.00 | 0.00 | 46 | 1006.4 |
| 20260504110439 | 6 | 309 | 9.7 | 11.3 | 0.00 | 0.00 | 0.00 | 55 | 1006.4 |
| 20260504100355 | 8 | 241 | 4.8 | 6.4 | 0.00 | 0.00 | 0.00 | 49 | 1006.5 |
| 20260504081748 | 7 | 203 | 8.0 | 12.9 | 0.00 | 0.00 | 0.00 | 56 | 1007.7 |
| 20260504081245 | 7 | 193 | 9.7 | 14.5 | 0.00 | 0.00 | 0.00 | 55 | 1007.7 |
| 20260504080741 | 6 | 191 | 8.0 | 9.7 | 0.00 | 0.00 | 0.00 | 58 | 1007.8 |
| 20260504080238 | 6 | 192 | 8.0 | 11.3 | 0.00 | 0.00 | 0.00 | 59 | 1007.8 |
| 20260504070206 | 8 | 175 | 9.7 | 9.7 | 0.00 | 0.00 | 0.00 | 54 | 1008.5 |
| 20260504060126 | 10 | 174 | 6.4 | 6.4 | 0.00 | 0.00 | 0.00 | 51 | 1009.0 |
| 20260504050554 | 10 | 5 | 4.8 | 8.0 | 0.00 | 0.00 | 0.00 | 51 | 1009.2 |
| 20260504045548 | 10 | 88 | 6.4 | 8.0 | 0.00 | 0.00 | 0.00 | 51 | 1009.0 |
| 20260504045043 | 10 | 68 | 6.4 | 9.7 | 0.00 | 0.00 | 0.00 | 50 | 1009.1 |
| 20260504044541 | 10 | 78 | 9.7 | 11.3 | 0.00 | 0.00 | 0.00 | 51 | 1009.1 |
| 20260504044038 | 10 | 93 | 6.4 | 8.0 | 0.00 | 0.00 | 0.00 | 50 | 1009.2 |
| 20260504043535 | 10 | 93 | 6.4 | 8.0 | 0.00 | 0.00 | 0.00 | 49 | 1009.5 |
| 20260504043032 | 10 | 87 | 8.0 | 8.0 | 0.00 | 0.00 | 0.00 | 49 | 1009.4 |
| 20260504042529 | 10 | 104 | 6.4 | 8.0 | 0.00 | 0.00 | 0.00 | 49 | 1009.4 |
| 20260504042026 | 10 | 102 | 8.0 | 8.0 | 0.00 | 0.00 | 0.00 | 49 | 1009.4 |
| 20260504041522 | 10 | 94 | 9.7 | 9.7 | 0.00 | 0.00 | 0.00 | 49 | 1009.6 |
| 20260504041018 | 10 | 103 | 9.7 | 9.7 | 0.00 | 0.00 | 0.00 | 49 | 1009.6 |
| 20260504040516 | 10 | 105 | 11.3 | 14.5 | 0.00 | 0.00 | 0.00 | 51 | 1009.6 |
| 20260504040012 | 9 | 122 | 11.3 | 14.5 | 0.00 | 0.00 | 0.00 | 50 | 1009.5 |
| 20260504035509 | 10 | 136 | 9.7 | 9.7 | 0.00 | 0.00 | 0.00 | 49 | 1009.6 |
| 20260504035005 | 10 | 120 | 8.0 | 9.7 | 0.00 | 0.00 | 0.00 | 48 | 1009.5 |
| 20260504034503 | 11 | 116 | 8.0 | 11.3 | 0.00 | 0.00 | 0.00 | 48 | 1009.6 |
| 20260504034000 | 10 | 128 | 6.4 | 9.7 | 0.00 | 0.00 | 0.00 | 49 | 1009.7 |
| 20260504033458 | 10 | 118 | 11.3 | 12.9 | 0.00 | 0.00 | 0.00 | 51 | 1009.8 |
| 20260504032955 | 10 | 139 | 9.7 | 11.3 | 0.00 | 0.00 | 0.00 | 49 | 1009.6 |
| 20260504032452 | 11 | 145 | 9.7 | 11.3 | 0.00 | 0.00 | 0.00 | 46 | 1009.6 |
| 20260504031948 | 11 | 100 | 6.4 | 6.4 | 0.00 | 0.00 | 0.00 | 46 | 1009.6 |
| 20260504031445 | 12 | 70 | 8.0 | 11.3 | 0.00 | 0.00 | 0.00 | 44 | 1009.5 |
| 20260504030942 | 12 | 71 | 11.3 | 12.9 | 0.00 | 0.00 | 0.00 | 43 | 1009.5 |
| 20260504030439 | 13 | 57 | 14.5 | 14.5 | 0.00 | 0.00 | 0.00 | 42 | 1009.5 |
| 20260504025935 | 13 | 41 | 11.3 | 16.1 | 0.00 | 0.00 | 0.00 | 42 | 1009.2 |
| 20260504025432 | 13 | 46 | 12.9 | 17.7 | 0.00 | 0.00 | 0.00 | 42 | 1009.4 |
| 20260504024929 | 13 | 50 | 9.7 | 17.7 | 0.00 | 0.00 | 0.00 | 40 | 1009.4 |
| 20260504024426 | 14 | 52 | 11.3 | 17.7 | 0.00 | 0.00 | 0.00 | 39 | 1009.4 |
| 20260504023923 | 15 | 32 | 17.7 | 20.9 | 0.00 | 0.00 | 0.00 | 39 | 1009.4 |
| 20260504023419 | 15 | 42 | 14.5 | 24.1 | 0.00 | 0.00 | 0.00 | 37 | 1009.4 |
| 20260504022915 | 15 | 34 | 16.1 | 30.6 | 0.00 | 0.00 | 0.00 | 36 | 1009.1 |
| 20260504022412 | 16 | 24 | 16.1 | 30.6 | 0.00 | 0.00 | 0.00 | 35 | 1009.2 |
| 20260504021908 | 16 | 26 | 17.7 | 37.0 | 0.00 | 0.00 | 0.00 | 32 | 1009.0 |
| 20260504021406 | 17 | 353 | 29.0 | 35.4 | 0.00 | 0.00 | 0.00 | 28 | 1009.0 |
| 20260504020903 | 17 | 12 | 16.1 | 19.3 | 0.00 | 0.00 | 0.00 | 27 | 1008.7 |
| 20260504020359 | 17 | 7 | 14.5 | 16.1 | 0.00 | 0.00 | 0.00 | 27 | 1008.7 |
| 20260504015855 | 17 | 19 | 3.2 | 4.8 | 0.00 | 0.00 | 0.00 | 26 | 1008.3 |
| 20260504015351 | 18 | 18 | 3.2 | 6.4 | 0.00 | 0.00 | 0.00 | 25 | 1008.1 |
| 20260504014848 | 18 | 57 | 3.2 | 3.2 | 0.00 | 0.00 | 0.00 | 25 | 1008.0 |
| 20260504014344 | 18 | 9 | 6.4 | 9.7 | 0.00 | 0.00 | 0.00 | 25 | 1008.0 |
| 20260504013842 | 18 | 7 | 11.3 | 14.5 | 0.00 | 0.00 | 0.00 | 25 | 1007.8 |
| 20260504013339 | 18 | 325 | 14.5 | 24.1 | 0.00 | 0.00 | 0.00 | 24 | 1007.9 |
| 20260504012836 | 19 | 158 | 9.7 | 12.9 | 0.00 | 0.00 | 0.00 | 23 | 1007.5 |
| 20260504012334 | 20 | 300 | 6.4 | 17.7 | 0.00 | 0.00 | 0.00 | 22 | 1007.5 |
| 20260504011831 | 18 | 173 | 16.1 | 17.7 | 0.00 | 0.00 | 0.00 | 24 | 1007.7 |
| 20260504011327 | 18 | 183 | 4.8 | 6.4 | 0.00 | 0.00 | 0.00 | 25 | 1007.9 |
| 20260504010823 | 18 | 141 | 8.0 | 9.7 | 0.00 | 0.00 | 0.00 | 25 | 1007.7 |
| 20260504010319 | 18 | 152 | 6.4 | 8.0 | 0.00 | 0.00 | 0.00 | 24 | 1007.7 |
| 20260504005816 | 19 | 138 | 6.4 | 8.0 | 0.00 | 0.00 | 0.00 | 23 | 1007.5 |
| 20260504005313 | 19 | 147 | 8.0 | 8.0 | 0.00 | 0.00 | 0.00 | 24 | 1007.7 |
| 20260504004810 | 20 | 133 | 3.2 | 8.0 | 0.00 | 0.00 | 0.00 | 23 | 1007.7 |
| 20260504004308 | 20 | 124 | 9.7 | 11.3 | 0.00 | 0.00 | 0.00 | 22 | 1007.7 |
| 20260504003804 | 20 | 148 | 11.3 | 14.5 | 0.00 | 0.00 | 0.00 | 23 | 1007.7 |
| 20260504003301 | 20 | 175 | 6.4 | 9.7 | 0.00 | 0.00 | 0.00 | 22 | 1007.4 |
| 20260504002757 | 20 | 189 | 11.3 | 14.5 | 0.00 | 0.00 | 0.00 | 22 | 1007.5 |
| 20260504002254 | 21 | 108 | 12.9 | 22.5 | 0.00 | 0.00 | 0.00 | 20 | 1007.4 |
| 20260504001752 | 21 | 118 | 12.9 | 22.5 | 0.00 | 0.00 | 0.00 | 20 | 1007.5 |
| 20260504001249 | 21 | 155 | 16.1 | 22.5 | 0.00 | 0.00 | 0.00 | 20 | 1007.4 |
| 20260504000746 | 21 | 66 | 4.8 | 14.5 | 0.00 | 0.00 | 0.00 | 20 | 1007.7 |
| 20260504000243 | 21 | 180 | 6.4 | 20.9 | 0.00 | 0.00 | 0.00 | 20 | 1007.7 |
| 20260503235741 | 22 | 115 | 12.9 | 12.9 | 0.00 | 0.00 | 0.00 | 19 | 1007.9 |
| 20260503235238 | 22 | 3 | 6.4 | 6.4 | 0.00 | 0.00 | 0.00 | 20 | 1007.7 |